This is the latest recevied weather packets stored in our database for station/object EA1FBN. If no packets are shown the sender has not sent any weather packets the latest 10 day(s).
| Time | Temp. | Humidity | Pressure | Rain* | Wind** | Luminosity | Snow |
|---|---|---|---|---|---|---|---|
| 1777920913 | 10° C | 75% | 1013.4 hPa | 0 mm | - | - | - |
| 1777920613 | 10° C | 75% | 1013.4 hPa | 0 mm | - | - | - |
| 1777920313 | 10° C | 75% | 1013.4 hPa | 0 mm | - | - | - |
| 1777920013 | 10.56° C | 75% | 1013.4 hPa | 0 mm | - | - | - |
| 1777919713 | 10.56° C | 74% | 1013.4 hPa | 0 mm | - | - | - |
| 1777919413 | 10.56° C | 74% | 1013.4 hPa | 0 mm | - | - | - |
| 1777919113 | 11.11° C | 73% | 1013.3 hPa | 0 mm | - | - | - |
| 1777918813 | 11.11° C | 73% | 1013.3 hPa | 0 mm | - | - | - |
| 1777918513 | 11.67° C | 72% | 1013.1 hPa | 0 mm | - | - | - |
| 1777918213 | 11.67° C | 70% | 1013.1 hPa | 0 mm | - | - | - |
| 1777917913 | 12.22° C | 69% | 1013 hPa | 0 mm | - | - | - |
| 1777917613 | 12.22° C | 68% | 1012.9 hPa | 0 mm | - | - | - |
| 1777917313 | 12.22° C | 69% | 1012.9 hPa | 0 mm | - | - | - |
| 1777917013 | 12.22° C | 68% | 1012.8 hPa | 0 mm | - | - | - |
| 1777916713 | 12.22° C | 70% | 1012.8 hPa | 0 mm | - | - | - |
| 1777916413 | 12.22° C | 71% | 1012.8 hPa | 0 mm | - | - | - |
| 1777916113 | 12.22° C | 71% | 1012.9 hPa | 0 mm | - | - | - |
| 1777915813 | 12.22° C | 70% | 1012.8 hPa | 0 mm | - | - | - |
| 1777915513 | 12.22° C | 70% | 1012.8 hPa | 0 mm | - | - | - |
| 1777915213 | 12.22° C | 70% | 1013 hPa | 0 mm | - | - | - |
| 1777914913 | 12.78° C | 68% | 1013 hPa | 0 mm | - | - | - |
| 1777914613 | 12.78° C | 71% | 1013.1 hPa | 0 mm | - | - | - |
| 1777914313 | 12.78° C | 69% | 1012.5 hPa | 0 mm | - | - | - |
| 1777914014 | 13.33° C | 68% | 1012.5 hPa | 0 mm | - | - | - |
| 1777913714 | 13.33° C | 68% | 1012.5 hPa | 0 mm | - | - | - |
* Rain latest hour (hover to see other rain measurements)
** Current wind speed in m/s (hover to see current wind gust speed)